Weather History for Buffalo, WY

Change the Weather History Date:

Wednesday, May 15, 2013

  Actual Average Record
Temperature  
Mean Temperature 59 °F 52 °F  
Max Temperature 73 °F 63 °F 82 °F (2012)
Min Temperature 45 °F 41 °F 31 °F (1999)
Degree Days  
Heating Degree Days 6 13  
Month to date heating degree days 168 227  
Since 1 July heating degree days 6873 7071  
Cooling Degree Days 0 0  
Month to date cooling degree days 10 0  
Year to date cooling degree days 10 0  
Growing Degree Days 8 (Base 50)    
Moisture  
Dew Point 37 °F    
Average Humidity 45    
Maximum Humidity 60    
Minimum Humidity 30    
Precipitation  
Precipitation 0.00 in 0.09 in 0.04 in (2008)
Month to date precipitation 0.32 1.15  
Year to date precipitation 1.84 4.14  
Sea Level Pressure  
Sea Level Pressure 29.85 in    
Wind  
Wind Speed 7 mph (NW)    
Max Wind Speed 15 mph    
Max Gust Speed 23 mph    
Visibility 10 miles    
Events      
T = Trace of Precipitation, MM = Missing Value Source: NWS Daily Summary

Daily Weather History Graph

Daily Weather History Graph

Search for Another Location

Airport:

Trip Planner

Search our weather history database for the weather conditions in past years. The results will help you decide how hot, cold, wet, or windy it might be!

Date:

Astronomy

May. 15, 2013 Rise Set
Actual Time 5:39 AM MDT 8:27 PM MDT
Civil Twilight 5:05 AM MDT 9:01 PM MDT
Nautical Twilight 4:22 AM MDT 9:44 PM MDT
Astronomical Twilight 3:33 AM MDT 10:34 PM MDT
Moon 10:19 AM MDT (5/15) 12:14 AM MDT (5/15)
Length of Visible Light 15h 56m
Length of Day
14h 48m
Waxing Crescent, 27% of the Moon is Illuminated
May 15
Waxing Crescent
May 17
First Quarter
May 24
Full
May 31
Last Quarter
Jun 8
New

Hourly Weather History & Observations

Time (MDT) Temp. Dew Point Humidity Pressure Visibility Wind Dir Wind Speed Gust Speed Precip Events Conditions
12:53 AM 52.0 °F 34.0 °F 50% 29.88 in 10.0 mi WNW 3.5 mph - N/A   Clear
1:53 AM 51.1 °F 34.0 °F 52% 29.86 in 10.0 mi WSW 4.6 mph - N/A   Clear
2:53 AM 50.0 °F 33.1 °F 52% 29.86 in 10.0 mi WSW 3.5 mph - N/A   Clear
3:53 AM 53.1 °F 30.9 °F 43% 29.84 in 10.0 mi West 3.5 mph - N/A   Clear
4:53 AM 48.9 °F 34.0 °F 56% 29.86 in 10.0 mi NNW 5.8 mph - N/A   Clear
5:53 AM 46.9 °F 33.1 °F 59% 29.89 in 10.0 mi NW 8.1 mph - N/A   Clear
6:53 AM 50.0 °F 35.1 °F 57% 29.91 in 10.0 mi NNW 8.1 mph - N/A   Clear
7:53 AM 55.0 °F 35.1 °F 47% 29.92 in 10.0 mi North 10.4 mph - N/A   Clear
8:53 AM 59.0 °F 34.0 °F 39% 29.91 in 10.0 mi North 9.2 mph - N/A   Clear
9:53 AM 60.1 °F 35.1 °F 39% 29.91 in 10.0 mi North 9.2 mph - N/A   Clear
10:53 AM 62.1 °F 35.1 °F 37% 29.92 in 10.0 mi NNW 8.1 mph - N/A   Clear
11:53 AM 66.0 °F 35.1 °F 32% 29.89 in 10.0 mi North 5.8 mph - N/A   Clear
12:53 PM 68.0 °F 36.0 °F 31% 29.88 in 10.0 mi North 6.9 mph - N/A   Clear
1:53 PM 69.1 °F 37.9 °F 32% 29.87 in 10.0 mi Variable 3.5 mph 17.3 mph N/A   Clear
2:53 PM 71.1 °F 39.0 °F 31% 29.83 in 10.0 mi NNW 6.9 mph - N/A   Clear
3:53 PM 71.1 °F 39.9 °F 32% 29.81 in 10.0 mi NNW 8.1 mph 18.4 mph N/A   Clear
4:53 PM 71.1 °F 39.9 °F 32% 29.81 in 10.0 mi NNW 9.2 mph - N/A   Clear
5:53 PM 71.1 °F 39.9 °F 32% 29.81 in 10.0 mi Calm Calm - N/A   Clear
6:53 PM 66.9 °F 42.1 °F 40% 29.79 in 10.0 mi WNW 6.9 mph - N/A   Clear
7:53 PM 66.9 °F 42.1 °F 40% 29.78 in 10.0 mi NW 6.9 mph - N/A   Partly Cloudy
8:53 PM 64.9 °F 39.9 °F 40% 29.77 in 10.0 mi NW 8.1 mph - N/A   Scattered Clouds
9:53 PM 63.0 °F 41.0 °F 45% 29.77 in 10.0 mi WSW 5.8 mph - N/A   Overcast
10:53 PM 59.0 °F 42.1 °F 53% 29.77 in 10.0 mi WNW 9.2 mph - N/A   Mostly Cloudy
11:53 PM 59.0 °F 39.9 °F 49% 29.75 in 10.0 mi ESE 5.8 mph - N/A   Partly Cloudy